Location: Arboyeti
(42.1122°N, 44.6017°E)
Time: 06:38:20
(UTC+00:00)

ISS - Pass Details

Date: 01 October 2021
Orbit: 417 x 423 km, 51.6° (Epoch: 18 October)

Event Time Altitude Azimuth Distance (km) Brightness Sun altitude
Rises 16:45:30 0° 305° (NW) 2,366 1.3 -23.3°
Reaches altitude 10° 16:47:36 10° 307° (NW) 1,500 0.0 -23.6°
Enters shadow 16:49:47 37° 317° (NW) 671 -2.3 -24.0°
